Time,TemperatureF,DewpointF,PressureIn,WindDirection,WindDirectionDegrees,WindSpeedMPH,WindSpeedGustMPH,Humidity,HourlyPrecipIn,Conditions,Clouds,dailyrainin,SoftwareType,DateUTC
2013-11-05 00:05:00,39.1,30.0,30.54,West,275,1.0,4.0,69,0.00,,,0.00,weatherlink.com 1.10,2013-11-05 05:05:00,
2013-11-05 00:20:00,38.5,29.0,30.54,West,275,0.0,1.0,69,0.00,,,0.00,weatherlink.com 1.10,2013-11-05 05:20:00,
2013-11-05 00:35:00,38.2,29.0,30.54,West,275,1.0,3.0,70,0.00,,,0.00,weatherlink.com 1.10,2013-11-05 05:35:00,
2013-11-05 00:50:00,37.5,29.0,30.53,West,275,0.0,1.0,71,0.00,,,0.00,weatherlink.com 1.10,2013-11-05 05:50:00,
2013-11-05 01:05:00,37.5,29.0,30.54,West,275,0.0,3.0,71,0.00,,,0.00,weatherlink.com 1.10,2013-11-05 06:05:00,
2013-11-05 01:20:00,37.5,29.0,30.53,West,275,0.0,1.0,70,0.00,,,0.00,weatherlink.com 1.10,2013-11-05 06:20:00,
2013-11-05 01:35:00,37.3,28.0,30.53,West,275,1.0,2.0,70,0.00,,,0.00,weatherlink.com 1.10,2013-11-05 06:35:00,
2013-11-05 01:50:00,37.2,29.0,30.53,West,275,0.0,1.0,71,0.00,,,0.00,weatherlink.com 1.10,2013-11-05 06:50:00,
2013-11-05 02:05:00,36.9,28.0,30.55,West,275,0.0,2.0,70,0.00,,,0.00,weatherlink.com 1.10,2013-11-05 07:05:00,
2013-11-05 02:20:00,36.6,28.0,30.55,WNW,294,0.0,3.0,71,0.00,,,0.00,weatherlink.com 1.10,2013-11-05 07:20:00,
2013-11-05 02:35:00,36.2,28.0,30.54,WNW,294,0.0,1.0,73,0.00,,,0.00,weatherlink.com 1.10,2013-11-05 07:35:00,
2013-11-05 02:50:00,35.7,27.0,30.54,NNE,16,1.0,2.0,72,0.00,,,0.00,weatherlink.com 1.10,2013-11-05 07:50:00,
2013-11-05 03:06:00,35.6,28.0,30.54,NNE,15,0.0,0.0,73,0.00,,,0.00,weatherlink.com 1.10,2013-11-05 08:06:00,
2013-11-05 03:20:00,35.5,28.0,30.53,WNW,290,0.0,1.0,74,0.00,,,0.00,weatherlink.com 1.10,2013-11-05 08:20:00,
2013-11-05 03:35:00,35.7,28.0,30.53,WNW,289,0.0,2.0,73,0.00,,,0.00,weatherlink.com 1.10,2013-11-05 08:35:00,
2013-11-05 03:50:00,35.6,28.0,30.52,WNW,289,0.0,0.0,74,0.00,,,0.00,weatherlink.com 1.10,2013-11-05 08:50:00,
2013-11-05 04:05:00,35.3,27.0,30.53,WNW,289,0.0,0.0,73,0.00,,,0.00,weatherlink.com 1.10,2013-11-05 09:05:00,
2013-11-05 04:20:00,35.0,28.0,30.53,WNW,289,0.0,2.0,74,0.00,,,0.00,weatherlink.com 1.10,2013-11-05 09:20:00,
2013-11-05 04:35:00,34.3,27.0,30.53,WNW,289,0.0,1.0,75,0.00,,,0.00,weatherlink.com 1.10,2013-11-05 09:35:00,
2013-11-05 04:50:00,33.8,27.0,30.54,WNW,289,0.0,0.0,76,0.00,,,0.00,weatherlink.com 1.10,2013-11-05 09:50:00,
2013-11-05 05:05:00,33.1,27.0,30.54,WNW,289,0.0,0.0,78,0.00,,,0.00,weatherlink.com 1.10,2013-11-05 10:05:00,
2013-11-05 05:20:00,32.3,26.0,30.54,WNW,289,0.0,1.0,79,0.00,,,0.00,weatherlink.com 1.10,2013-11-05 10:20:00,
2013-11-05 05:35:00,31.7,27.0,30.54,WNW,289,0.0,1.0,81,0.00,,,0.00,weatherlink.com 1.10,2013-11-05 10:35:00,
2013-11-05 05:50:00,31.5,27.0,30.54,WNW,289,1.0,2.0,82,0.00,,,0.00,weatherlink.com 1.10,2013-11-05 10:50:00,
2013-11-05 06:05:00,31.4,27.0,30.55,WNW,289,0.0,1.0,82,0.00,,,0.00,weatherlink.com 1.10,2013-11-05 11:05:00,
2013-11-05 06:20:00,31.1,27.0,30.56,WNW,289,0.0,2.0,83,0.00,,,0.00,weatherlink.com 1.10,2013-11-05 11:20:00,
2013-11-05 06:35:00,31.0,26.0,30.56,WNW,289,1.0,4.0,83,0.00,,,0.00,weatherlink.com 1.10,2013-11-05 11:35:00,
2013-11-05 06:50:00,31.0,26.0,30.56,WNW,289,0.0,1.0,83,0.00,,,0.00,weatherlink.com 1.10,2013-11-05 11:50:00,
2013-11-05 07:05:00,31.3,27.0,30.55,WNW,289,0.0,1.0,83,0.00,,,0.00,weatherlink.com 1.10,2013-11-05 12:05:00,
2013-11-05 07:20:00,31.7,27.0,30.56,WNW,289,1.0,2.0,83,0.00,,,0.00,weatherlink.com 1.10,2013-11-05 12:20:00,
2013-11-05 07:35:00,31.9,27.0,30.57,WNW,289,0.0,1.0,82,0.00,,,0.00,weatherlink.com 1.10,2013-11-05 12:35:00,
2013-11-05 07:50:00,32.4,28.0,30.57,WNW,289,0.0,1.0,83,0.00,,,0.00,weatherlink.com 1.10,2013-11-05 12:50:00,
2013-11-05 08:05:00,33.0,28.0,30.58,WNW,289,0.0,1.0,82,0.00,,,0.00,weatherlink.com 1.10,2013-11-05 13:05:00,
2013-11-05 08:20:00,33.8,28.0,30.57,WNW,289,0.0,2.0,80,0.00,,,0.00,weatherlink.com 1.10,2013-11-05 13:20:00,
2013-11-05 08:35:00,34.6,29.0,30.57,NE,40,0.0,0.0,80,0.00,,,0.00,weatherlink.com 1.10,2013-11-05 13:35:00,
2013-11-05 08:51:00,36.1,30.0,30.57,NE,40,0.0,1.0,77,0.00,,,0.00,weatherlink.com 1.10,2013-11-05 13:51:00,
2013-11-05 09:06:00,37.6,30.0,30.57,NE,40,0.0,2.0,74,0.00,,,0.00,weatherlink.com 1.10,2013-11-05 14:06:00,
2013-11-05 09:21:00,38.8,30.0,30.56,NE,40,1.0,2.0,71,0.00,,,0.00,weatherlink.com 1.10,2013-11-05 14:21:00,
2013-11-05 09:36:00,40.9,31.0,30.55,NE,40,0.0,1.0,68,0.00,,,0.00,weatherlink.com 1.10,2013-11-05 14:36:00,
2013-11-05 09:51:00,43.6,31.0,30.55,NE,40,0.0,2.0,61,0.00,,,0.00,weatherlink.com 1.10,2013-11-05 14:51:00,
2013-11-05 10:06:00,46.5,29.0,30.54,SW,219,0.0,3.0,50,0.00,,,0.00,weatherlink.com 1.10,2013-11-05 15:06:00,
2013-11-05 10:21:00,49.6,23.0,30.53,West,271,1.0,6.0,36,0.00,,,0.00,weatherlink.com 1.10,2013-11-05 15:21:00,
2013-11-05 10:36:00,52.0,20.0,30.53,South,189,0.0,5.0,29,0.00,,,0.00,weatherlink.com 1.10,2013-11-05 15:36:00,
2013-11-05 10:51:00,53.8,19.0,30.53,East,81,0.0,7.0,25,0.00,,,0.00,weatherlink.com 1.10,2013-11-05 15:51:00,
2013-11-05 11:06:00,53.9,21.0,30.53,SW,215,2.0,6.0,28,0.00,,,0.00,weatherlink.com 1.10,2013-11-05 16:06:00,
2013-11-05 11:21:00,52.9,24.0,30.53,SW,233,0.0,8.0,32,0.00,,,0.00,weatherlink.com 1.10,2013-11-05 16:21:00,
2013-11-05 11:36:00,51.9,20.0,30.52,SW,234,2.0,6.0,29,0.00,,,0.00,weatherlink.com 1.10,2013-11-05 16:36:00,
2013-11-05 11:51:00,51.4,25.0,30.52,SSE,153,0.0,3.0,36,0.00,,,0.00,weatherlink.com 1.10,2013-11-05 16:51:00,
2013-11-05 12:06:00,52.4,24.0,30.52,WSW,255,0.0,5.0,33,0.00,,,0.00,weatherlink.com 1.10,2013-11-05 17:06:00,
2013-11-05 12:21:00,52.5,22.0,30.51,WSW,255,2.0,4.0,31,0.00,,,0.00,weatherlink.com 1.10,2013-11-05 17:21:00,
2013-11-05 12:36:00,52.5,23.0,30.51,NE,51,3.0,5.0,32,0.00,,,0.00,weatherlink.com 1.10,2013-11-05 17:36:00,
2013-11-05 12:51:00,52.7,25.0,30.51,NE,53,0.0,4.0,34,0.00,,,0.00,weatherlink.com 1.10,2013-11-05 17:51:00,
2013-11-05 13:06:00,53.1,24.0,30.50,SSW,196,0.0,6.0,32,0.00,,,0.00,weatherlink.com 1.10,2013-11-05 18:06:00,
2013-11-05 13:21:00,53.6,23.0,30.50,NE,46,2.0,8.0,31,0.00,,,0.00,weatherlink.com 1.10,2013-11-05 18:21:00,
2013-11-05 13:36:00,53.4,23.0,30.50,WNW,296,0.0,4.0,30,0.00,,,0.00,weatherlink.com 1.10,2013-11-05 18:36:00,
2013-11-05 13:51:00,53.7,26.0,30.49,ENE,60,1.0,5.0,34,0.00,,,0.00,weatherlink.com 1.10,2013-11-05 18:51:00,
2013-11-05 14:07:00,54.2,26.0,30.49,West,259,0.0,3.0,34,0.00,,,0.00,weatherlink.com 1.10,2013-11-05 19:07:00,
2013-11-05 14:21:00,54.4,27.0,30.49,SSW,205,0.0,6.0,35,0.00,,,0.00,weatherlink.com 1.10,2013-11-05 19:21:00,
2013-11-05 14:36:00,54.2,28.0,30.48,WSW,242,1.0,4.0,36,0.00,,,0.00,weatherlink.com 1.10,2013-11-05 19:36:00,
2013-11-05 14:51:00,54.5,28.0,30.47,SE,128,0.0,5.0,36,0.00,,,0.00,weatherlink.com 1.10,2013-11-05 19:51:00,
2013-11-05 15:22:00,54.9,32.0,30.46,NE,49,0.0,3.0,42,0.00,,,0.00,weatherlink.com 1.10,2013-11-05 20:22:00,
2013-11-05 15:37:00,54.4,33.0,30.47,NNE,19,0.0,5.0,45,0.00,,,0.00,weatherlink.com 1.10,2013-11-05 20:37:00,
2013-11-05 15:52:00,53.7,34.0,30.47,South,180,0.0,2.0,48,0.00,,,0.00,weatherlink.com 1.10,2013-11-05 20:52:00,
2013-11-05 16:07:00,53.1,36.0,30.47,South,180,0.0,2.0,52,0.00,,,0.00,weatherlink.com 1.10,2013-11-05 21:07:00,
2013-11-05 16:22:00,52.4,37.0,30.47,WSW,249,0.0,2.0,56,0.00,,,0.00,weatherlink.com 1.10,2013-11-05 21:22:00,
2013-11-05 16:37:00,51.6,37.0,30.47,SW,232,1.0,3.0,58,0.00,,,0.00,weatherlink.com 1.10,2013-11-05 21:37:00,
2013-11-05 16:52:00,50.4,37.0,30.48,WSW,257,0.0,2.0,60,0.00,,,0.00,weatherlink.com 1.10,2013-11-05 21:52:00,
2013-11-05 17:07:00,49.3,37.0,30.47,NE,41,1.0,3.0,63,0.00,,,0.00,weatherlink.com 1.10,2013-11-05 22:07:00,
2013-11-05 17:22:00,48.0,37.0,30.47,NNE,28,0.0,2.0,66,0.00,,,0.00,weatherlink.com 1.10,2013-11-05 22:22:00,
2013-11-05 17:37:00,46.6,36.0,30.47,NNW,344,0.0,1.0,68,0.00,,,0.00,weatherlink.com 1.10,2013-11-05 22:37:00,
2013-11-05 17:53:00,45.3,36.0,30.48,NNW,344,0.0,2.0,70,0.00,,,0.00,weatherlink.com 1.10,2013-11-05 22:53:00,
2013-11-05 18:07:00,44.3,35.0,30.48,NNW,344,0.0,1.0,71,0.00,,,0.00,weatherlink.com 1.10,2013-11-05 23:07:00,
2013-11-05 18:22:00,43.3,35.0,30.48,NNW,344,2.0,2.0,73,0.00,,,0.00,weatherlink.com 1.10,2013-11-05 23:22:00,
2013-11-05 18:37:00,42.4,35.0,30.49,NNW,344,0.0,2.0,75,0.00,,,0.00,weatherlink.com 1.10,2013-11-05 23:37:00,
2013-11-05 18:52:00,42.2,35.0,30.49,NNW,344,0.0,2.0,75,0.00,,,0.00,weatherlink.com 1.10,2013-11-05 23:52:00,
2013-11-05 19:07:00,42.2,35.0,30.48,NNW,344,1.0,2.0,75,0.00,,,0.00,weatherlink.com 1.10,2013-11-06 00:07:00,
2013-11-05 19:22:00,42.5,35.0,30.48,NNW,344,0.0,1.0,76,0.00,,,0.00,weatherlink.com 1.10,2013-11-06 00:22:00,
2013-11-05 19:37:00,42.7,36.0,30.49,NNW,344,1.0,1.0,76,0.00,,,0.00,weatherlink.com 1.10,2013-11-06 00:37:00,
2013-11-05 19:52:00,42.5,36.0,30.49,NNW,344,0.0,1.0,79,0.00,,,0.00,weatherlink.com 1.10,2013-11-06 00:52:00,
2013-11-05 20:07:00,42.6,36.0,30.48,NNW,344,0.0,1.0,78,0.00,,,0.00,weatherlink.com 1.10,2013-11-06 01:07:00,
2013-11-05 20:22:00,42.5,36.0,30.49,NNW,344,0.0,2.0,79,0.00,,,0.00,weatherlink.com 1.10,2013-11-06 01:22:00,
2013-11-05 20:37:00,43.4,38.0,30.48,NNW,344,1.0,2.0,80,0.00,,,0.00,weatherlink.com 1.10,2013-11-06 01:37:00,
2013-11-05 20:52:00,43.4,37.0,30.48,WNW,288,2.0,3.0,78,0.00,,,0.00,weatherlink.com 1.10,2013-11-06 01:52:00,
2013-11-05 21:07:00,43.0,37.0,30.48,WNW,288,0.0,2.0,80,0.00,,,0.00,weatherlink.com 1.10,2013-11-06 02:07:00,
2013-11-05 21:22:00,44.3,39.0,30.48,WNW,288,0.0,2.0,82,0.00,,,0.00,weatherlink.com 1.10,2013-11-06 02:22:00,
2013-11-05 21:38:00,46.2,42.0,30.47,WNW,288,0.0,2.0,85,0.00,,,0.00,weatherlink.com 1.10,2013-11-06 02:38:00,
2013-11-05 21:52:00,47.0,42.0,30.46,West,280,2.0,4.0,84,0.00,,,0.00,weatherlink.com 1.10,2013-11-06 02:52:00,
2013-11-05 22:07:00,47.6,43.0,30.46,WNW,296,1.0,6.0,84,0.00,,,0.00,weatherlink.com 1.10,2013-11-06 03:07:00,
2013-11-05 22:22:00,48.0,43.0,30.46,WSW,249,0.0,2.0,84,0.00,,,0.00,weatherlink.com 1.10,2013-11-06 03:22:00,
2013-11-05 22:37:00,48.1,44.0,30.45,WSW,242,1.0,5.0,86,0.00,,,0.00,weatherlink.com 1.10,2013-11-06 03:37:00,
2013-11-05 22:52:00,47.9,44.0,30.45,SW,233,1.0,6.0,87,0.00,,,0.00,weatherlink.com 1.10,2013-11-06 03:52:00,
2013-11-05 23:07:00,48.1,44.0,30.44,WSW,244,2.0,6.0,87,0.00,,,0.00,weatherlink.com 1.10,2013-11-06 04:07:00,
2013-11-05 23:22:00,48.2,45.0,30.44,SW,215,1.0,6.0,89,0.00,,,0.00,weatherlink.com 1.10,2013-11-06 04:22:00,
2013-11-05 23:37:00,48.2,46.0,30.43,WSW,248,3.0,6.0,90,0.00,,,0.00,weatherlink.com 1.10,2013-11-06 04:37:00,
2013-11-05 23:52:00,48.3,46.0,30.42,WSW,251,5.0,6.0,91,0.00,,,0.00,weatherlink.com 1.10,2013-11-06 04:52:00,